Temperature
4 4 4 4 4 4 4 6 6 7 7 7 6 5 4 3 3 2 2 2 2 2 1 2 2 2 2 2 2 2 2 2 2 2 2 2 2 2 2 2 2 2 3 3
3 3 3 3 4 4 4 5 5 5 6 6 5 4 4 3 2 2 2 1 1 1 1 1 1 1 1 2 2 2 2 2 2 2 2 2 2 2 2 2 2 2 2 2
5 3 3 5 4 4 4 4 5 5 6 6 4 4 3 2 2 1 1 1 1 1 1 1 1 1 1 1 1 1 1 1 1 1 1 1 2 2 2 1 1 1 2 2
4 3 4 7 4 4 4 4 4 4 5 4 4 3 2 2 1 1 1 1 1 1 1 1 1 1 1 1 1 1 1 1 1 1 1 1 1 1 1 1 1 1 1 1
3 4 5 6 4 3 3 4 4 3 4 3 2 2 2 2 1 1 0 1 1 1 1 1 1 1 1 1 1 1 1 1 1 1 1 1 1 1 1 1 1 1 0 1
2 4 5 6 3 2 3 4 4 3 3 2 1 4 4 2 1 0 0 0 0 0 0 0 1 0 0 0 0 0 0 1 1 1 1 1 0 0 0 0 0 0 0 0
2 3 5 4 1 2 4 5 3 2 2 1 2 3 2 1 1 0 0 0 0 0 0 0 0 0 0 0 0 0 0 0 0 0 0 0 0 0 0 -0 -0 -0 -0 -0
2 3 5 2 1 3 4 3 2 1 1 1 1 1 1 1 0 -0 -0 -0 -0 -0 -0 -0 -0 -1 -1 -1 -0 -0 -0 -0 -0 -0 -0 -0 -0 -0 -0 -1 -1 -1 -1 -1
3 5 3 1 2 2 2 1 1 1 1 0 0 0 0 0 -0 -0 -1 -1 -1 -1 -1 -1 -1 -1 -1 -1 -1 -1 -1 -1 -1 -1 -1 -1 -1 -1 -1 -1 -2 -2 -2 -2
1 2 2 1 1 1 1 1 1 1 1 0 -0 -0 -0 -0 -1 -1 -1 -1 -1 -1 -1 -1 -1 -1 -1 -1 -1 -1 -1 -2 -2 -1 -1 -1 -1 -2 -2 -2 -2 -3 -3 -3
1 2 1 1 1 2 1 1 1 1 1 0 -0 -0 -1 -1 -1 -1 -2 -2 -2 -2 -2 -1 -2 -2 -1 -2 -2 -2 -2 -2 -2 -2 -2 -2 -2 -2 -2 -2 -3 -3 -3 -3
3 3 2 2 3 2 1 1 1 1 0 -0 -0 -0 -1 -1 -1 -1 -2 -2 -2 -2 -2 -2 -2 -2 -2 -2 -2 -2 -2 -2 -2 -3 -2 -3 -3 -3 -3 -3 -3 -3 -3 -3
2 2 2 2 2 2 1 1 1 0 0 -0 -0 -1 -1 -1 -1 -2 -2 -2 -2 -2 -2 -2 -2 -2 -2 -2 -2 -3 -3 -3 -3 -3 -3 -3 -3 -3 -3 -3 -3 -3 -3 -3
1 1 1 1 1 1 1 1 1 0 -0 -0 -0 -1 -1 -1 -1 -2 -2 -2 -2 -2 -2 -2 -2 -3 -3 -3 -3 -3 -3 -3 -3 -3 -3 -3 -3 -3 -4 -4 -4 -4 -4 -4
1 1 1 1 1 1 1 0 -0 -0 -0 -1 -1 -1 -1 -2 -2 -2 -2 -3 -3 -3 -3 -3 -3 -3 -3 -3 -3 -3 -3 -4 -4 -4 -4 -4 -4 -4 -4 -4 -4 -5 -4 -4
1 1 1 1 1 0 0 -0 -0 -0 -1 -1 -1 -2 -2 -2 -2 -2 -3 -3 -3 -3 -3 -3 -3 -3 -3 -4 -4 -4 -4 -4 -4 -4 -4 -4 -4 -4 -5 -5 -5 -5 -5 -5
0 -0 0 0 0 0 -0 -0 -0 -1 -1 -1 -1 -2 -2 -2 -3 -3 -3 -3 -4 -4 -4 -4 -4 -4 -4 -4 -4 -4 -4 -4 -4 -4 -4 -4 -5 -5 -5 -5 -5 -5 -5 -5
1 1 1 1 0 0 -0 -1 -1 -1 -1 -1 -2 -2 -2 -3 -3 -3 -4 -4 -4 -4 -4 -4 -4 -4 -4 -4 -4 -4 -5 -5 -5 -5 -5 -5 -5 -5 -5 -6 -6 -6 -6 -6
1 1 0 0 0 -0 -0 -1 -1 -1 -2 -2 -2 -2 -3 -3 -3 -4 -4 -4 -4 -4 -4 -4 -5 -5 -5 -5 -5 -5 -5 -5 -5 -5 -5 -6 -6 -6 -6 -6 -6 -6 -6 -6
0 0 0 -0 -0 -1 -1 -1 -1 -2 -2 -2 -2 -3 -3 -3 -4 -4 -4 -4 -5 -5 -5 -5 -5 -5 -5 -5 -5 -5 -5 -5 -5 -6 -6 -6 -6 -6 -6 -6 -6 -6 -6 -6
0 -0 -0 -1 -1 -1 -1 -2 -2 -2 -2 -2 -3 -3 -3 -3 -4 -4 -4 -5 -5 -5 -5 -5 -5 -5 -5 -5 -5 -5 -5 -6 -6 -6 -6 -6 -6 -6 -6 -6 -6 -6 -6 -6
-1 -1 -1 -1 -1 -2 -2 -2 -2 -2 -2 -3 -3 -3 -4 -4 -4 -4 -5 -5 -5 -5 -5 -5 -5 -6 -6 -6 -6 -6 -6 -6 -6 -6 -6 -6 -7 -7 -7 -7 -7 -7 -7 -7
-1 -1 -1 -1 -2 -2 -2 -2 -2 -3 -3 -3 -3 -4 -4 -4 -4 -5 -5 -5 -5 -5 -5 -6 -6 -6 -6 -6 -6 -6 -6 -6 -6 -6 -7 -7 -7 -7 -7 -7 -7 -7 -7 -7
-1 -2 -2 -2 -2 -2 -2 -3 -3 -3 -3 -4 -4 -4 -4 -5 -5 -5 -5 -5 -5 -6 -6 -6 -6 -6 -6 -6 -6 -6 -6 -7 -7 -7 -7 -7 -7 -8 -8 -8 -8 -8 -8 -8
-2 -2 -2 -2 -3 -3 -3 -3 -3 -4 -4 -4 -4 -5 -5 -5 -5 -5 -5 -6 -6 -6 -6 -6 -6 -7 -6 -6 -7 -7 -7 -7 -7 -7 -7 -8 -8 -8 -8 -8 -8 -8 -8 -8
-2 -3 -3 -3 -3 -3 -3 -4 -4 -4 -4 -4 -5 -5 -5 -5 -5 -6 -6 -6 -6 -6 -6 -7 -7 -7 -7 -7 -7 -7 -7 -7 -8 -8 -8 -8 -8 -8 -8 -8 -8 -8 -8 -8
-3 -3 -3 -3 -3 -4 -4 -4 -4 -4 -5 -5 -5 -5 -5 -6 -6 -6 -6 -6 -6 -7 -7 -7 -7 -7 -7 -7 -7 -7 -8 -8 -8 -8 -8 -8 -8 -8 -8 -9 -9 -9 -9 -8
Wind_Speed
8 7 5 7 8 9 11 11 9 10 12 12 10 10 9 8 7 6 6 6 6 6 6 6 6 6 5 5 5 4 4 3 4 3 2 2 2 1 1 1 1 2 2 2
5 4 5 8 9 10 11 11 13 14 15 11 9 7 7 7 6 7 7 7 7 7 6 6 6 6 5 5 5 4 4 4 3 2 2 1 1 0 0 0 1 1 1 1
4 4 4 8 9 11 8 9 10 12 12 7 7 7 7 7 6 7 7 7 7 7 6 6 6 5 5 4 3 3 3 3 3 2 2 1 0 0 0 0 0 1 1 0
3 2 6 3 0 5 9 11 11 11 10 8 8 8 7 6 6 7 7 7 7 7 6 6 5 5 4 3 2 3 3 3 2 2 2 1 0 0 0 0 0 1 1 1
2 4 8 5 2 3 6 8 7 10 10 7 6 6 5 3 4 6 6 6 6 6 5 5 5 4 3 2 2 2 2 2 2 2 2 1 0 1 0 0 0 0 1 1
3 4 6 2 1 1 2 5 3 6 7 5 3 5 5 3 5 5 5 5 5 5 4 4 4 4 2 2 2 2 3 3 2 1 1 1 1 1 0 0 0 1 1 1
7 7 8 2 1 2 3 4 3 4 5 5 5 5 5 4 4 4 4 4 4 3 3 3 3 3 2 1 2 2 2 2 2 1 1 1 1 0 0 0 1 1 1 1
6 7 7 4 5 5 4 4 3 5 5 5 6 6 5 4 4 4 4 4 4 3 3 3 3 2 2 2 2 2 2 2 2 2 1 1 0 0 0 0 1 1 1 1
8 7 3 6 6 4 3 4 5 5 5 5 6 6 5 4 4 3 4 4 3 3 3 3 3 1 2 3 2 2 1 2 2 2 2 1 0 1 1 1 0 0 1 1
7 10 9 8 8 7 6 7 6 6 5 5 6 6 5 4 4 3 3 3 3 3 3 3 3 2 2 2 2 1 1 1 1 1 2 2 1 1 1 0 0 0 0 0
10 10 9 9 10 9 7 6 6 5 5 5 6 6 5 4 4 3 3 3 3 3 3 4 3 3 2 2 1 1 1 1 1 1 1 1 1 1 1 0 0 0 0 0
9 7 6 6 5 6 7 7 6 5 5 5 5 5 5 4 4 4 3 3 3 4 3 3 3 3 2 2 1 1 0 1 1 1 0 1 1 2 3 2 3 2 2 1
9 6 7 7 6 6 7 7 6 6 5 5 4 4 4 4 3 3 4 4 4 4 4 3 3 3 3 2 2 1 1 1 1 0 0 0 0 1 1 3 4 4 3 2
9 7 8 8 7 6 5 5 5 4 4 4 4 3 3 3 3 3 4 4 4 3 3 3 3 3 3 2 2 2 1 1 1 1 0 0 0 0 0 1 1 2 2 2
11 10 8 6 5 5 4 4 4 4 4 4 3 3 3 4 4 4 3 3 3 3 3 3 3 3 3 2 2 1 1 1 1 0 0 0 0 0 0 0 0 1 1 1
8 7 8 8 8 7 5 5 5 6 5 4 4 4 4 4 3 3 2 2 2 3 3 3 3 3 3 2 2 1 1 1 0 0 0 0 0 0 1 0 0 0 1 1
7 8 8 8 9 8 7 7 7 6 5 5 5 4 3 2 2 2 2 2 3 3 3 3 3 3 2 2 1 1 1 0 1 0 0 0 0 0 0 0 0 1 1 1
10 9 9 8 8 7 7 6 6 6 6 5 4 3 3 4 4 3 3 2 2 2 2 2 2 2 2 2 1 1 1 1 1 1 1 1 1 0 1 1 1 1 1 1
8 8 8 7 7 7 7 6 6 5 5 4 4 5 4 4 4 3 2 2 2 2 2 2 2 1 1 1 1 1 1 0 0 0 1 1 1 0 1 1 1 1 1 1
5 5 5 5 5 6 6 5 5 4 4 4 4 4 3 3 3 3 2 3 3 2 2 2 1 1 1 1 1 1 1 1 1 1 1 1 1 1 1 1 1 1 1 1
5 5 5 5 5 5 5 5 5 5 4 5 5 5 4 3 3 3 2 2 2 1 1 2 1 1 1 1 1 1 1 1 1 1 1 1 1 1 1 1 1 1 2 2
4 4 5 4 4 3 3 4 4 5 4 4 4 3 3 3 2 2 3 3 2 1 1 1 1 1 1 1 1 1 1 1 1 1 2 2 2 2 2 2 2 2 2 2
3 4 4 4 4 3 2 3 4 4 5 5 4 4 4 3 3 2 2 2 2 2 1 1 1 1 1 0 1 1 1 2 2 2 2 2 2 2 2 2 2 2 2 2
3 3 3 3 3 3 3 3 3 3 3 3 3 4 3 2 2 2 2 2 2 2 1 1 1 1 0 0 1 1 1 1 2 2 2 2 2 2 2 2 2 2 2 3
3 3 4 4 4 4 4 3 3 2 2 2 2 2 2 2 2 2 2 2 2 2 1 1 1 1 0 1 1 1 1 2 2 2 2 2 2 2 2 2 2 2 3 3
3 4 4 4 3 3 3 3 3 3 2 2 2 2 2 1 2 2 2 2 2 2 1 1 1 1 1 1 1 1 2 2 2 2 2 2 2 2 2 2 3 3 3 3
3 3 2 2 2 3 4 4 4 3 3 3 2 2 2 2 2 2 2 2 1 1 1 1 1 1 1 1 1 1 2 2 2 2 2 2 2 2 2 3 3 3 3 3
Wind_Direction
266 278 261 251 248 228 225 237 249 265 274 285 295 298 302 305 308 310 310 309 308 308 310 313 316 316 315 317 320 320 317 309 302 298 296 290 281 267 257 251 248 236 226 222
268 267 269 265 257 239 239 245 251 267 275 282 293 295 297 302 303 303 306 306 306 305 307 307 308 307 311 316 318 319 311 304 309 307 293 287 287 263 243 283 279 250 227 210
269 298 284 264 247 227 231 232 235 252 268 283 291 293 293 296 296 295 300 303 303 302 299 300 301 301 300 307 313 311 305 307 314 304 291 286 275 184 192 319 325 310 312 320
276 289 248 268 64 224 239 248 241 253 270 276 283 293 286 276 284 292 296 300 303 305 304 304 303 299 299 305 308 302 304 314 317 304 294 299 312 261 276 280 266 297 324 350
228 261 273 272 232 223 236 266 248 255 269 282 301 296 276 271 278 290 295 297 299 301 299 301 304 303 299 299 305 307 316 318 313 303 297 291 255 258 267 250 251 311 308 357
213 244 254 270 66 296 228 265 258 255 263 271 277 284 297 306 301 303 306 309 310 312 311 310 312 309 292 290 300 310 314 319 323 310 293 283 269 252 237 173 108 36 23 359
227 243 263 259 156 164 226 294 318 267 263 248 249 278 304 296 293 298 305 313 315 312 311 314 314 306 296 291 301 312 321 334 344 334 302 280 276 249 135 89 61 40 35 27
204 227 251 158 156 202 265 314 291 283 275 261 268 288 297 288 290 301 311 315 318 318 318 322 316 305 304 304 320 334 344 355 357 355 350 297 251 98 77 87 73 53 63 70
213 234 289 182 214 246 275 275 281 286 286 272 271 276 287 285 287 292 297 306 311 314 317 322 320 310 299 312 328 341 356 359 8 13 13 19 86 118 110 87 67 30 65 81
256 262 266 252 255 260 261 265 273 276 278 270 269 273 278 281 287 293 294 295 303 306 310 314 318 314 308 314 316 324 344 353 12 26 25 28 33 55 80 67 92 51 31 100
254 269 280 260 245 249 253 259 267 276 273 264 263 268 270 275 280 283 287 292 294 292 296 303 310 313 322 323 319 325 337 352 8 25 35 35 32 22 7 3 327 295 293 242
247 250 242 266 257 236 240 251 255 262 271 266 253 255 261 267 268 269 274 280 286 291 297 306 311 313 321 320 299 283 304 329 344 359 36 73 68 48 44 41 35 31 29 11
254 264 258 270 267 250 247 251 251 252 256 260 257 247 246 260 264 268 273 277 279 285 292 302 310 312 320 316 293 264 256 257 268 275 223 128 102 86 56 45 45 48 53 58
247 249 256 255 258 255 247 244 249 256 260 255 252 249 244 255 261 262 269 277 284 288 293 302 307 310 319 309 290 280 274 263 260 244 226 213 187 155 93 69 29 29 48 61
239 238 247 256 254 247 242 242 245 251 255 255 245 238 238 248 257 266 278 290 289 288 294 302 304 313 322 311 288 279 273 257 259 268 245 226 178 142 104 78 43 12 18 34
235 236 238 240 240 239 235 234 238 246 245 243 242 243 243 248 257 266 273 266 265 273 283 289 297 313 321 317 301 285 267 242 221 206 201 187 130 133 115 108 52 324 312 326
216 230 232 237 238 237 235 234 236 240 240 239 241 240 233 231 246 258 269 273 275 274 273 278 295 316 318 313 297 281 277 214 176 182 188 199 196 196 182 190 250 284 297 320
231 236 230 227 228 231 236 237 236 236 237 236 226 214 209 214 230 247 261 278 295 296 291 294 302 319 317 311 297 277 254 230 197 195 206 215 223 231 220 220 235 256 287 297
233 233 231 226 223 221 226 231 233 233 230 213 204 211 218 223 229 236 239 244 258 278 298 300 296 301 308 311 309 271 250 205 182 206 207 214 227 234 234 237 249 264 266 252
229 226 223 224 220 217 220 224 221 219 212 199 199 206 217 224 220 217 220 234 248 262 275 286 290 302 306 293 284 253 233 217 208 216 220 226 238 249 251 250 248 253 254 253
220 218 215 218 220 218 214 208 202 206 205 197 198 207 217 223 209 203 214 249 274 265 258 257 282 296 288 287 252 244 235 229 227 231 236 243 249 253 257 260 261 257 252 250
221 216 214 207 203 213 207 196 197 198 196 198 199 198 200 210 211 220 232 243 251 230 236 251 273 277 284 274 245 231 224 225 233 237 239 244 246 248 251 258 260 258 253 249
221 215 207 201 201 196 189 192 191 191 194 198 199 201 206 211 209 215 245 238 222 225 236 243 270 271 268 236 244 231 229 233 240 242 244 246 249 250 251 253 256 255 255 256
212 204 197 183 166 173 194 200 186 188 192 204 208 206 201 203 221 230 239 215 208 213 231 240 241 249 222 254 246 239 237 243 249 254 257 256 256 256 256 256 257 258 258 259
197 191 183 179 191 202 197 180 166 173 180 192 205 209 209 210 215 217 210 207 202 203 223 221 215 229 243 261 259 258 255 252 254 255 254 256 257 258 261 261 261 263 265 264
199 202 203 205 206 196 185 182 187 188 183 191 204 205 200 193 188 188 185 186 190 196 201 209 218 233 245 257 269 276 276 274 270 266 261 258 257 256 259 262 265 264 265 266
197 196 189 200 202 194 189 191 194 198 195 195 204 200 190 182 177 176 171 171 177 189 200 211 221 236 250 264 274 279 280 276 269 264 259 257 258 259 260 260 263 262 261 258
Height
1511 1510 1510 1508 1507 1508 1506 1499 1494 1486 1485 1483 1484 1484 1484 1482 1481 1479 1477 1475 1473 1471 1469 1467 1465 1463 1461 1459 1457 1455 1454 1453 1452 1451 1450 1450 1450 1450 1449 1449 1450 1450 1450 1450
1511 1510 1509 1506 1502 1502 1501 1498 1494 1490 1486 1483 1484 1484 1482 1481 1479 1477 1475 1473 1471 1469 1467 1464 1462 1461 1458 1456 1455 1454 1452 1451 1450 1449 1448 1448 1448 1448 1447 1447 1447 1448 1447 1447
1502 1508 1506 1496 1493 1495 1494 1491 1490 1485 1481 1481 1482 1481 1480 1478 1477 1475 1473 1471 1468 1466 1464 1462 1460 1458 1456 1455 1454 1452 1451 1450 1448 1447 1447 1446 1446 1445 1445 1445 1445 1445 1445 1445
1506 1507 1499 1484 1489 1489 1488 1485 1485 1482 1480 1481 1480 1479 1477 1476 1474 1472 1470 1468 1465 1463 1461 1459 1458 1456 1455 1453 1452 1451 1449 1448 1447 1446 1445 1444 1443 1443 1443 1443 1443 1443 1443 1443
1508 1499 1487 1483 1487 1489 1488 1482 1481 1480 1479 1479 1479 1477 1474 1473 1472 1470 1468 1466 1463 1461 1459 1457 1455 1454 1452 1451 1450 1448 1447 1446 1445 1444 1443 1442 1442 1442 1442 1441 1441 1441 1441 1441
1507 1499 1486 1478 1485 1485 1487 1479 1477 1477 1476 1477 1477 1473 1470 1470 1469 1467 1465 1463 1461 1458 1456 1454 1453 1451 1450 1449 1447 1446 1446 1445 1444 1443 1442 1441 1441 1441 1440 1440 1440 1439 1439 1440
1503 1496 1481 1481 1484 1485 1482 1474 1475 1474 1474 1474 1474 1472 1470 1467 1466 1465 1463 1461 1458 1456 1454 1452 1451 1449 1448 1447 1446 1445 1444 1443 1442 1442 1441 1440 1440 1439 1438 1438 1438 1437 1438 1438
1498 1494 1482 1480 1482 1481 1475 1474 1473 1472 1472 1471 1470 1469 1467 1465 1463 1462 1460 1458 1456 1454 1452 1450 1449 1448 1447 1445 1444 1443 1443 1442 1441 1440 1439 1439 1438 1438 1437 1437 1436 1436 1436 1437
1486 1479 1475 1476 1475 1474 1473 1473 1471 1470 1469 1469 1467 1466 1464 1462 1461 1459 1458 1456 1454 1452 1450 1449 1448 1447 1445 1444 1443 1442 1441 1440 1439 1439 1438 1438 1437 1437 1436 1436 1436 1436 1436 1436
1484 1474 1474 1473 1472 1472 1471 1470 1469 1468 1467 1466 1464 1463 1461 1460 1458 1457 1455 1453 1452 1450 1448 1447 1446 1445 1444 1443 1442 1441 1440 1439 1438 1438 1437 1437 1436 1436 1436 1435 1435 1435 1435 1436
1478 1472 1471 1467 1468 1468 1468 1467 1466 1465 1464 1463 1462 1460 1459 1457 1455 1454 1453 1451 1450 1448 1447 1445 1444 1443 1442 1442 1441 1440 1439 1438 1437 1437 1436 1436 1435 1435 1435 1435 1435 1435 1435 1435
1466 1465 1466 1463 1463 1464 1464 1463 1462 1461 1460 1460 1459 1457 1456 1455 1453 1452 1450 1449 1448 1446 1445 1443 1442 1441 1441 1440 1439 1438 1437 1437 1436 1436 1435 1435 1435 1434 1434 1434 1434 1434 1434 1434
1462 1461 1461 1460 1460 1460 1459 1459 1458 1458 1457 1456 1455 1455 1453 1452 1451 1449 1448 1446 1445 1444 1442 1441 1440 1440 1439 1438 1438 1437 1436 1435 1435 1435 1434 1434 1433 1433 1433 1433 1433 1433 1433 1434
1457 1458 1457 1456 1456 1456 1456 1455 1455 1454 1454 1453 1452 1451 1450 1449 1448 1446 1445 1444 1443 1441 1440 1439 1438 1438 1437 1436 1436 1435 1434 1434 1433 1433 1433 1433 1432 1432 1432 1432 1432 1432 1432 1433
1452 1453 1452 1452 1452 1452 1452 1452 1451 1451 1450 1450 1449 1448 1447 1446 1445 1444 1443 1442 1440 1439 1438 1437 1437 1436 1435 1434 1434 1433 1433 1432 1432 1432 1432 1432 1431 1432 1431 1431 1431 1431 1431 1431
1446 1447 1447 1447 1447 1448 1448 1448 1448 1447 1447 1446 1446 1445 1444 1443 1442 1441 1440 1439 1438 1436 1436 1435 1434 1434 1433 1433 1432 1431 1431 1431 1431 1430 1430 1430 1430 1430 1430 1430 1430 1430 1430 1430
1441 1441 1442 1442 1443 1443 1444 1444 1444 1444 1443 1443 1442 1442 1441 1440 1439 1438 1437 1437 1436 1435 1434 1433 1433 1432 1432 1431 1431 1430 1430 1429 1429 1429 1429 1429 1429 1429 1429 1429 1429 1429 1429 1429
1436 1436 1437 1438 1438 1439 1439 1440 1440 1440 1440 1439 1439 1438 1438 1437 1436 1435 1435 1434 1433 1432 1432 1431 1431 1430 1430 1429 1429 1429 1428 1428 1428 1427 1428 1428 1428 1428 1428 1428 1428 1427 1427 1427
1431 1431 1432 1433 1434 1435 1435 1436 1436 1436 1436 1436 1435 1435 1435 1434 1433 1433 1432 1431 1431 1430 1430 1429 1429 1428 1428 1428 1427 1427 1427 1426 1426 1426 1426 1426 1426 1426 1426 1426 1426 1426 1426 1426
1426 1427 1428 1429 1430 1431 1431 1432 1432 1432 1432 1432 1432 1432 1431 1431 1431 1430 1429 1429 1429 1428 1428 1427 1427 1426 1426 1426 1426 1425 1425 1425 1425 1425 1425 1424 1424 1424 1424 1424 1424 1424 1424 1424
1423 1423 1424 1425 1426 1426 1427 1428 1428 1428 1428 1429 1428 1428 1428 1428 1428 1427 1427 1427 1427 1426 1426 1425 1425 1425 1424 1424 1424 1424 1424 1423 1423 1423 1423 1423 1423 1422 1422 1422 1422 1422 1422 1422
1419 1420 1421 1421 1422 1423 1424 1424 1425 1425 1425 1425 1425 1425 1425 1425 1425 1425 1425 1425 1424 1424 1423 1423 1423 1423 1423 1423 1422 1422 1422 1422 1421 1421 1421 1421 1421 1420 1420 1420 1420 1420 1420 1420
1416 1417 1418 1419 1419 1420 1420 1421 1421 1421 1422 1422 1422 1422 1423 1423 1423 1423 1422 1423 1422 1422 1422 1421 1422 1422 1421 1421 1420 1420 1420 1419 1419 1419 1419 1418 1418 1418 1418 1418 1418 1418 1418 1418
1414 1414 1415 1416 1416 1417 1417 1417 1418 1419 1419 1419 1420 1420 1420 1420 1420 1420 1420 1420 1420 1420 1420 1420 1420 1420 1419 1419 1418 1418 1418 1417 1417 1417 1416 1416 1415 1415 1415 1415 1415 1415 1415 1415
1411 1412 1412 1413 1413 1413 1414 1415 1415 1416 1416 1417 1417 1417 1418 1418 1418 1418 1418 1418 1418 1418 1418 1418 1418 1418 1417 1417 1416 1416 1415 1415 1414 1414 1413 1413 1413 1412 1412 1412 1412 1412 1412 1412
1408 1409 1409 1410 1410 1411 1411 1411 1412 1413 1413 1414 1414 1414 1415 1415 1415 1415 1416 1416 1416 1416 1416 1416 1416 1415 1415 1414 1414 1413 1413 1412 1411 1411 1410 1410 1410 1409 1409 1410 1410 1410 1409 1409
1405 1405 1406 1406 1407 1408 1408 1409 1409 1410 1410 1411 1411 1412 1412 1412 1412 1413 1413 1413 1413 1414 1414 1413 1413 1413 1412 1412 1411 1411 1410 1409 1409 1408 1408 1407 1407 1407 1407 1407 1407 1406 1406 1406